Snowfall_Accumulation
1.0 0.9 1.0 0.8 0.8 1.2 1.3 1.5 1.9 2.0 1.2 0.9 1.1 0.8 1.0 1.1 0.0 0.4 0.1 0.1 0.2 0.1 0.1 0.1 0.1 0.1 0.2 0.2 0.2 0.2 0.1 0.1 0.1 0.0 0.0 0.0 0.0 0.0
1.1 1.1 0.8 1.0 1.2 1.5 1.4 1.3 1.3 1.9 1.8 0.9 1.3 1.3 1.0 1.0 0.4 0.7 0.5 0.2 0.2 0.2 0.1 0.1 0.2 0.2 0.2 0.2 0.2 0.2 0.2 0.1 0.1 0.1 0.0 0.0 0.0 0.0
1.2 1.2 1.1 1.0 1.0 1.2 1.7 1.5 1.3 1.6 2.0 1.0 1.1 1.1 1.0 1.1 1.0 1.1 0.5 0.5 0.6 0.4 0.4 0.2 0.3 0.3 0.3 0.3 0.3 0.3 0.2 0.2 0.2 0.1 0.1 0.0 0.0 0.0
1.1 1.1 1.0 0.8 0.9 1.1 1.6 1.7 1.3 1.3 2.0 1.8 1.3 1.5 1.3 1.2 1.0 1.2 1.1 0.7 0.6 0.4 0.5 0.4 0.5 0.5 0.5 0.6 0.5 0.4 0.3 0.3 0.3 0.2 0.1 0.1 0.0 0.0
1.0 1.0 1.2 1.2 1.2 1.2 1.8 2.0 1.5 1.3 1.5 2.1 2.1 1.5 1.3 1.2 1.0 0.9 1.1 0.9 0.5 0.3 0.3 0.3 0.4 0.6 0.8 0.9 0.7 0.6 0.5 0.5 0.4 0.3 0.3 0.3 0.2 0.1
1.0 1.1 1.3 1.3 1.9 2.1 2.4 2.9 2.5 2.4 2.3 2.7 3.1 2.7 2.3 1.7 1.6 1.5 1.4 1.3 1.0 0.9 1.0 0.9 0.8 1.0 1.1 1.0 0.7 0.7 0.7 0.7 0.8 0.8 0.7 0.6 0.5 0.4
1.7 1.5 1.7 2.0 2.0 2.3 2.6 3.5 3.4 3.9 4.1 4.8 4.7 4.0 3.1 2.5 1.9 1.7 1.9 1.7 1.1 1.1 2.0 1.4 1.4 1.2 1.1 0.8 0.7 0.7 0.8 1.0 1.1 1.2 1.2 0.9 0.6 0.5
2.6 2.6 2.3 2.0 2.0 1.9 2.5 3.3 4.4 5.8 7.0 7.2 6.3 4.7 3.1 2.1 1.8 2.3 3.4 3.8 3.5 1.6 2.2 1.2 1.0 1.0 0.9 0.9 0.9 1.0 1.3 1.4 1.6 1.8 1.8 1.5 1.1 1.0
3.6 3.3 2.9 2.4 2.4 1.9 1.8 2.4 3.0 3.9 5.0 5.4 5.2 3.7 2.8 2.7 3.5 4.4 4.4 4.8 4.2 2.6 2.8 2.7 1.3 1.7 0.9 0.8 0.8 1.0 1.1 1.5 1.6 1.9 1.9 1.6 1.5 1.3
3.3 2.8 2.7 2.0 1.9 2.5 2.9 3.5 2.4 1.9 1.6 1.9 2.4 2.2 2.2 2.8 4.4 6.2 6.4 5.3 3.5 2.3 2.8 4.6 3.0 2.2 1.2 1.1 0.9 0.9 1.4 1.7 1.9 2.5 2.2 2.0 1.8 1.6
2.6 2.1 2.3 2.0 2.0 3.5 5.0 5.1 2.6 1.5 1.1 1.6 2.1 2.3 2.8 2.9 3.5 6.0 7.2 8.1 6.3 3.2 2.6 4.1 2.9 2.5 1.6 1.4 1.3 1.0 1.3 1.5 1.7 2.0 2.3 2.0 1.6 1.7
2.2 1.7 1.9 2.3 3.1 4.6 5.6 5.7 4.3 2.3 2.1 1.9 2.1 1.7 1.5 1.7 2.5 4.5 7.9 11.6 10.4 7.0 3.2 4.4 4.6 5.4 5.4 1.7 1.5 1.3 1.4 1.1 1.5 1.9 2.0 1.6 1.8 2.1
3.0 2.5 1.9 2.7 4.1 4.7 4.9 4.5 4.5 4.2 3.6 3.0 2.7 2.4 1.7 1.7 1.8 2.2 4.2 10.0 14.2 10.4 4.6 8.4 10.9 7.7 9.5 5.0 1.9 1.6 1.8 2.7 2.7 2.8 2.4 2.6 3.0 3.8
4.4 2.7 2.7 3.8 4.2 4.2 3.8 3.6 4.2 4.4 4.6 4.7 4.4 4.0 3.8 3.1 2.7 2.9 3.3 4.4 6.4 8.2 6.1 9.8 16.1 12.5 13.9 11.1 5.5 3.7 3.1 3.7 5.2 5.2 3.9 4.2 4.9 4.7
3.3 3.5 3.9 3.7 3.7 3.5 3.4 3.5 3.6 3.8 4.7 6.0 5.7 4.9 3.9 3.8 3.3 3.4 3.3 3.3 3.1 3.3 4.2 6.0 10.8 11.8 14.1 13.8 8.9 5.3 5.8 5.2 5.3 6.0 5.6 6.5 6.1 5.4
3.5 3.4 3.2 2.8 2.9 3.3 3.1 3.0 3.3 4.4 5.8 6.6 6.2 5.1 4.3 4.3 4.1 4.1 5.9 6.0 6.8 5.7 4.3 4.2 5.6 9.9 12.2 9.4 9.8 8.5 7.6 8.7 7.7 6.4 5.9 5.4 5.3 5.1
5.6 5.0 4.0 3.5 3.9 4.1 3.6 3.6 3.4 4.2 5.3 6.0 6.4 6.3 5.7 5.3 5.1 5.2 6.7 7.8 9.3 7.7 6.8 5.4 4.4 5.1 7.1 9.2 10.5 8.6 7.8 8.8 9.2 8.4 8.7 7.3 4.3 3.9
6.9 7.4 5.7 4.5 4.8 4.6 5.0 5.1 4.8 4.9 5.7 6.6 7.2 7.3 7.6 7.5 7.4 6.5 7.8 9.2 9.5 7.8 7.3 7.1 7.3 8.0 8.1 7.5 7.5 9.3 9.1 10.1 10.2 8.9 9.8 12.4 8.9 3.6
7.2 6.8 6.1 6.0 5.7 5.7 5.9 6.1 6.0 5.4 6.1 7.8 8.5 8.5 8.4 8.5 8.6 8.8 9.0 9.7 9.1 7.7 7.5 7.3 9.5 14.1 15.0 10.1 6.9 8.0 11.9 12.6 10.9 10.7 10.8 12.5 13.3 6.3
5.8 5.8 5.5 5.5 6.0 7.0 7.1 6.7 6.8 6.2 6.5 7.6 8.0 8.2 9.0 9.6 9.6 9.4 9.4 10.2 10.5 9.3 8.1 7.2 8.6 13.6 19.0 16.2 12.6 10.2 9.4 13.4 15.4 16.2 13.8 9.8 7.7 3.3
5.6 5.4 5.3 5.5 6.4 7.3 7.8 7.9 7.6 7.9 7.6 8.5 8.9 9.0 9.8 11.0 10.2 8.9 9.4 9.7 10.9 10.8 10.0 7.8 6.6 8.4 12.7 16.4 15.1 10.3 10.3 9.2 12.3 19.2 19.1 17.3 15.0 11.4
5.4 5.5 5.6 5.9 6.5 7.4 7.9 8.5 8.6 8.0 8.2 8.5 8.8 9.3 9.9 11.1 11.3 10.5 10.4 11.1 10.8 10.3 9.5 7.7 7.3 8.7 12.3 16.2 13.8 9.6 9.5 9.1 8.7 8.5 11.7 15.9 26.6 26.8
6.4 6.5 6.7 6.7 7.2 7.8 8.0 8.6 8.9 8.7 8.6 9.9 10.4 10.6 11.2 11.7 11.0 11.3 11.1 11.3 11.5 10.8 10.4 9.9 9.0 9.3 10.2 11.4 12.3 10.8 9.5 8.2 8.4 9.4 11.4 10.0 8.4 9.8